Weather History for Kiana, AK

Change the Weather History Date:

Sunday, February 17, 2013

  Actual Average (PASK) Record (PASK)
Temperature  
Mean Temperature -17 °F -  
Max Temperature -11 °F 5 °F 30 °F (2006)
Min Temperature -32 °F -3 °F -32 °F (2013)
Degree Days  
Heating Degree Days 82    
Moisture  
Dew Point -24 °F    
Average Humidity 68    
Maximum Humidity 77    
Minimum Humidity 56    
Precipitation  
Precipitation 0.00 in - - ()
Sea Level Pressure  
Sea Level Pressure 30.43 in    
Wind  
Wind Speed 3 mph (West)    
Max Wind Speed 16 mph    
Max Gust Speed 20 mph    
Visibility 10 miles    
Events      
Averages and records for this station are not official NWS values.
T = Trace of Precipitation, MM = Missing Value Source: NWS Daily Summary

Daily Weather History Graph

Daily Weather History Graph

Search for Another Location

Airport:

Trip Planner

Search our weather history database for the weather conditions in past years. The results will help you decide how hot, cold, wet, or windy it might be!

Date:

Astronomy

Feb. 17, 2013 Rise Set
Actual Time 9:42 AM AKST 6:09 PM AKST
Civil Twilight 8:45 AM AKST 7:07 PM AKST
Nautical Twilight 7:43 AM AKST 8:09 PM AKST
Astronomical Twilight 6:41 AM AKST 9:11 PM AKST
Moon 9:58 AM AKST (2/17) 4:58 AM AKST (2/17)
Length of Visible Light 10h 21m
Length of Day
8h 27m
Waxing Crescent, 50% of the Moon is Illuminated
Feb 17
Waxing Crescent
Feb 25
Full
Mar 4
Last Quarter
Mar 11
New
Mar 19
First Quarter

Hourly Weather History & Observations

Time (AKST) Temp. Windchill Dew Point Humidity Pressure Visibility Wind Dir Wind Speed Gust Speed Precip Events Conditions
12:01 AM -27.0 °F - -33.0 °F 73% 30.37 in 10.0 mi Calm Calm - N/A   Clear
1:01 AM -27.0 °F - -32.1 °F 77% 30.37 in 10.0 mi Calm Calm - N/A   Clear
2:01 AM -26.0 °F -37.5 °F -32.1 °F 73% 30.36 in 10.0 mi West 3.5 mph - N/A   Clear
3:01 AM -24.0 °F - -31.0 °F 70% 30.37 in 10.0 mi Calm Calm - N/A   Clear
4:01 AM -26.0 °F - -32.1 °F 73% 30.37 in 10.0 mi Calm Calm - N/A   Clear
5:01 AM -27.0 °F - -34.1 °F 69% 30.38 in 10.0 mi Calm Calm - N/A   Clear
6:01 AM -31.0 °F - - N/A% 30.38 in 10.0 mi Calm Calm - N/A   Clear
7:01 AM -32.1 °F -44.5 °F - N/A% 30.38 in 10.0 mi WSW 3.5 mph - N/A   Clear
8:01 AM -29.9 °F - - N/A% 30.38 in 10.0 mi Calm Calm - N/A   Clear
9:01 AM -29.9 °F -44.8 °F - N/A% 30.38 in 10.0 mi WSW 4.6 mph - N/A   Clear
10:01 AM -26.0 °F - -32.1 °F 73% 30.40 in 10.0 mi Calm Calm - N/A   Clear
11:01 AM -22.0 °F - -29.0 °F 70% 30.42 in 8.0 mi Calm Calm - N/A   Clear
12:01 PM -20.9 °F - -29.0 °F 66% 30.43 in 9.0 mi Calm Calm - N/A   Clear
1:01 PM -16.1 °F - -25.1 °F 64% 30.43 in 9.0 mi Calm Calm - N/A   Clear
2:01 PM -14.1 °F -28.3 °F -23.1 °F 64% 30.45 in 10.0 mi South 5.8 mph - N/A   Clear
3:01 PM -9.0 °F -20.4 °F -20.9 °F 56% 30.44 in 10.0 mi SSE 4.6 mph - N/A   Clear
4:01 PM -9.9 °F -19.2 °F -18.0 °F 68% 30.46 in 10.0 mi Variable 3.5 mph - N/A   Clear
5:01 PM -8.0 °F -30.3 °F -14.1 °F 75% 30.47 in 10.0 mi NW 16.1 mph 19.6 mph N/A   Clear
5:15 PM -2.2 °F -21.5 °F -11.2 °F 66% 30.32 in 10.0 mi NW 13.8 mph 19.6 mph N/A   Clear
6:01 PM -9.0 °F -23.8 °F -18.9 °F 62% 30.49 in 10.0 mi SSW 6.9 mph - N/A   Clear
7:01 PM -5.1 °F -23.5 °F -14.1 °F 65% 30.51 in 10.0 mi NW 11.5 mph 16.1 mph N/A   Clear
8:01 PM -11.9 °F - -20.0 °F 67% 30.52 in 10.0 mi Calm Calm - N/A   Clear
9:01 PM -7.1 °F - -16.1 °F 65% 30.54 in 10.0 mi Calm Calm - N/A   Clear
10:01 PM -6.0 °F -26.3 °F -15.0 °F 65% 30.54 in 10.0 mi NW 13.8 mph - N/A   Clear
11:01 PM -6.0 °F -25.5 °F -15.0 °F 65% 30.53 in 10.0 mi NNW 12.7 mph - N/A   Clear